This is the latest recevied weather packets stored in our database for station/object KI2K. If no packets are shown the sender has not sent any weather packets the latest 10 day(s).
| Time | Temp. | Humidity | Pressure | Rain* | Wind** | Luminosity | Snow |
|---|---|---|---|---|---|---|---|
| 1777549706 | 4.44° C | 95% | 1016.1 hPa | 0 mm | - | 42 W/m² | - |
| 1777549400 | 4.44° C | 96% | 1016.1 hPa | 0 mm | - | 36 W/m² | - |
| 1777549098 | 4.44° C | 97% | 1016 hPa | 0 mm | - | 27 W/m² | - |
| 1777548795 | 3.89° C | 98% | 1015.7 hPa | 0 mm | - | 24 W/m² | - |
| 1777548492 | 3.89° C | 98% | 1015.9 hPa | 0 mm | - | 23 W/m² | - |
| 1777548188 | 3.89° C | 98% | 1016 hPa | 0 mm | - | 18 W/m² | - |
| 1777547885 | 3.89° C | 99% | 1015.8 hPa | 0 mm | - | 16 W/m² | - |
| 1777547581 | 3.89° C | 99% | 1015.8 hPa | 0 mm | - | 13 W/m² | - |
| 1777547278 | 3.89° C | 99% | 1015.7 hPa | 0 mm | - | 9 W/m² | - |
| 1777546975 | 3.33° C | 99% | 1015.3 hPa | 0 mm | - | 7 W/m² | - |
| 1777546672 | 3.33° C | 99% | 1015.7 hPa | 0 mm | - | 4 W/m² | - |
| 1777546368 | 3.33° C | 99% | 1015.6 hPa | 0 mm | - | 2 W/m² | - |
| 1777546066 | 3.33° C | 99% | 1015.6 hPa | 0 mm | - | 0 W/m² | - |
| 1777545762 | 3.33° C | 99% | 1015.5 hPa | 0 mm | - | 0 W/m² | - |
| 1777545459 | 3.33° C | 99% | 1015.6 hPa | 0 mm | - | 0 W/m² | - |
| 1777545156 | 3.33° C | 99% | 1015.5 hPa | 0 mm | - | 0 W/m² | - |
| 1777544854 | 3.33° C | 99% | 1015.7 hPa | 0 mm | - | 0 W/m² | - |
| 1777544549 | 3.33° C | 99% | 1015.7 hPa | 0 mm | - | 0 W/m² | - |
| 1777544246 | 3.33° C | 99% | 1015.8 hPa | 0 mm | - | 0 W/m² | - |
| 1777543943 | 3.33° C | 98% | 1015.8 hPa | 0 mm | - | 0 W/m² | - |
| 1777543640 | 3.33° C | 98% | 1015.9 hPa | 0 mm | - | 0 W/m² | - |
| 1777543335 | 3.33° C | 98% | 1015.7 hPa | 0 mm | - | 0 W/m² | - |
| 1777543031 | 3.33° C | 98% | 1015.8 hPa | 0 mm | - | 0 W/m² | - |
| 1777542728 | 3.33° C | 98% | 1015.7 hPa | 0 mm | - | 0 W/m² | - |
| 1777542425 | 3.89° C | 98% | 1015.7 hPa | 0 mm | - | 0 W/m² | - |
* Rain latest hour (hover to see other rain measurements)
** Current wind speed in m/s (hover to see current wind gust speed)